Location: USNO
(38.9242°N, 77.0663°W)
Time: 00:05:31
(UTC-05:00)

Hubble Space Telescope - Pass Details

Date: 08 October 2017
Orbit: 538 x 541 km, 28.5° (Epoch: 12 December)

Event Time Altitude Azimuth Distance (km) Brightness Sun altitude
Exits shadow 05:27:49 18° 182° (S) 1,367 2.7 -20.8°
Drops below altitude 10° 05:30:24 10° 143° (SE) 1,787 3.8 -20.3°
Sets 05:33:14 0° 124° (SE) 2,677 5.1 -19.8°
